レモン彗星

C/2012 K8 ( Lemmon )

English version
Home page
Updated on March 25, 2017

---------------------------------------------------------------------

・ プロフィール

発見日 2012年5月30日
発見光度 19.5等
発見者 A. Gibbs (Mount Lemmon survey)

・ 写真集

・ 軌道要素

Epoch 2014 Aug. 11.0 TT = JDT 2456880.5
T 2014 Aug. 19.35316 TT                                 MPCW
q   6.4630084            (2000.0)            P               Q
z  -0.0002915      Peri.   75.85131     -0.03131398     -0.70868894
 +/-0.0000005      Node   312.80741     -0.70286363     +0.51697871
e   1.0018841      Incl.  106.11184     +0.71063503     +0.48009687
From 901 observations 2012 May 30-2016 June 8, mean residual 0".5.

・ 光度変化

        m1 = 1.0 + 5 logΔ + 15.0 log r(t + 200)

---------------------------------------------------------------------

軌道要素はM.P.E.C. 2016-M09に掲載されたものです。
光度グラフはComet for Windowsで作成したものです。

---------------------------------------------------------------------

Copyright(C) Seiichi Yoshida (comet@aerith.net). All rights reserved.